Location: Jalan Sepang
(2.8072°N, 101.8021°E)
Time: 05:16:25
(UTC+00:00)

Meteor 1-24 Rocket - Pass Details

Date: 15 May 2026
Orbit: 790 x 925 km, 81.3° (Epoch: 7 June)

Event Time Altitude Azimuth Distance (km) Brightness Sun altitude
Exits shadow 21:26:34 41° 298° (WNW) 1,144 4.1 -23.1°
Drops below altitude 10° 21:30:55 10° 347° (NNW) 2,398 6.1 -22.1°
Sets 21:33:27 0° 353° (N) 3,347 7.0 -21.5°
